Details From MNMG - Managua Intl
To MGGT - La Aurora
Flight Number -
Tags Generated
Created
Modified
Stats Distance 293 nm / 543 km
Max Altitude 0 ft / 0 m
Waypoints 4
Social Downloads 0
Likes 0
Share VATSIM

Download

Looking for another format? Having issues loading an existing format? Contact us
Advertisement - Login to hide

Notes

Generated

Route

MNMG LEMPA ROSAM MGGT

ID Type Via Altitude Latitude Longitude Leg Dist Tot Dist Heading (true) Name
O MNMG APT - 0 ft / 0 m 12.14274˚ -86.17933˚ - 0 nm - -
LEMPA FIX - 0 ft / 0 m 13.55167˚ -88.70667˚ 170 nm 170 nm 300° / 299° -
ROSAM FIX - 0 ft / 0 m 14.35667˚ -90.16667˚ 97 nm 268 nm 300° / 299° -
O MGGT APT - 0 ft / 0 m 14.57040˚ -90.53161˚ 24 nm 293 nm 301° / 301° -

Altitude Profile

Advertisement - Login to hide

Weather


0- 5 10 15 20 25 30 35+ Temperature / ° C

Clouds and Precipitation
Forecast for 2017-06-24 00:00 UTC. Updated an hour ago

Ground ~20,000 ft ~40,000 ft Winds

MNMG

Details ICAO MNMG (MGA)
Name Managua Intl
Region Nicaragua
Timezone America/Managua (UTC-6.0)
Stats Elevation 194 ft / 59 m (AMSL)
Location 12.141493° -86.168178°
Runways 1
Magnetic Variation 0.877° W

METAR

MNMG 232000Z 13006KT 9999 FEW022CB SCT300 33/24 Q1009 A2979 CB/N/S/SW NOSIG

Decode

TAF

Not found

Departure Runways

ID Width Length Bearing (true) Bearing (mag) Surface Threshold Offset Overrun Length
09 148 ft / 45 m 8,008 ft / 2,441 m 96.54° 97.42° Asphalt 0 ft / 0 m 100 ft / 30 m
27 148 ft / 45 m 8,008 ft / 2,441 m 276.55° 277.43° Asphalt 0 ft / 0 m 100 ft / 30 m

MGGT

Details ICAO MGGT (GUA)
Name La Aurora
Region Guatemala
Timezone America/Guatemala (UTC-6.0)
Stats Elevation 4,952 ft / 1,509 m (AMSL)
Location 14.583272° -90.527473°
Runways 1
Magnetic Variation 1.135° E

METAR

MGGT 232000Z 21008KT 9999 SCT018TCU FEW022CB BKN080 24/16 Q1023 A3021 CB NNE/NE/ESE/S/SSW TCU ENE/E

Decode

TAF

TAF TAF MGGT 231100Z 2312/2412 VRB03KT 4000 BR BKN008 TX25/2320Z TN18/2312Z BECMG 2315/2317 18006KT 9999 FEW018 BECMG 2319/2321 SCT020 TEMPO 2320/2324 8000 TSRA FEW025CB BECMG 2401/2403 VRB03KT SCT016 TEMPO 2406/2412 00000KT 5000 BR BKN010

Decode

Destination Runways

ID Width Length Bearing (true) Bearing (mag) Surface Threshold Offset Overrun Length
01 196 ft / 60 m 9,841 ft / 3,000 m 17.29° 16.15° Asphalt 0 ft / 0 m 0 ft / 0 m
19 196 ft / 60 m 9,841 ft / 3,000 m 197.29° 196.15° Asphalt 722 ft / 220 m 0 ft / 0 m

Approach Navaids

Runway Type Ident Frequency Range Bearing (true) Bearing (mag) Slope Elevation
01 Localiser IAAI 110.10 MHz 18 nm / 33 km 17.36° 16.22° - 4,952 ft / 1,509 m (AMSL)
01 Glidescope IAAI 110.10 MHz 10 nm / 19 km 17.29° 16.15° 3.00° 4,952 ft / 1,509 m (AMSL)
01 DME IAAI 110.10 MHz 18 nm / 33 km - - - 4,952 ft / 1,509 m (AMSL)

Popular Alternatives